Warning: Javascript must be enabled to use all the features on this page!


Page Loading - Please Wait...

Click to hideNews Bulletins
  • Please see news on new formats
  • UPDATE, 11/9: As of November 8, the USGS has successfully restored all of the operational gages that stopped transmitting due to an issue with the satellite telemetry system that records and transmits data. The USGS will now focus on restoring other equipment that experienced the telemetry issues, including about 85 rapid deployment gages that are used periodically for emergency response. Read more
  • Full News RSS icon

USGS 02108566 NORTHEAST CAPE FEAR R NR BURGAW, NC

PROVISIONAL DATA SUBJECT TO REVISION

Click to hidestation-specific text
Pender County Logo This station is operated in cooperation with Pender County, North Carolina.

Forecasts for gage height (stage) are available for this station through the National Weather Service's River Forecast Center.
This station managed by the South Atlantic WSC Raleigh Field Office.

Available Parameters Available Period
All 2 Available Parameters for this site
  
00060 Discharge 2003-11-14  2005-12-12
00065 Gage height 2007-10-01  2018-11-12

Graph
Graph w/ stats
Graph w/o stats
Graph w/ (up to 3) parms
Table
Tab-separated
Days  (10)
 

  -- or --
Begin date
 

End date
 

Summary of all available data for this site
Instantaneous-data availability statement
Gage height, feet
TIMESep 15Sep 16Sep 17Sep 18Sep 19Sep 20Sep 21Sep 22Sep 23Sep 24Sep 25
00:00 EDT5.54A  12.84A  20.80A  24.37A  25.46A  25.42A  24.82A  23.94A  22.79A  21.36A  19.67A  
00:15 EDT5.60A  12.91A  20.78A  24.40A  25.50A  25.42A  24.82A  23.92A  22.77A  21.33A  19.66A  
00:30 EDT5.67A  12.97A  20.93A  24.44A  25.49A  25.42A  24.82A  23.93A  22.77A  21.29A  19.64A  
00:45 EDT5.72A  13.06A  21.04A  24.49A  25.50A  25.41A  24.80A  23.91A  22.74A  21.29A  19.60A  
01:00 EDT5.80A  13.12A  21.04A  24.45A  25.49A  25.40A  24.79A  23.90A  22.72A  21.26A  19.58A  
01:15 EDT5.87A  13.21A  21.09A  24.47A  25.51A  25.40A  24.79A  23.88A  22.71A  21.23A  19.57A  
01:30 EDT6.01A  13.28A  21.18A  24.49A  25.51A  25.38A  24.77A  23.89A  22.72A  21.25A  19.55A  
01:45 EDT6.12A  13.35A  21.16A  24.55A  25.51A  25.38A  24.78A  23.87A  22.69A  21.21A  19.52A  
02:00 EDT6.20A  13.41A  21.27A  24.54A  25.52A  25.37A  24.76A  23.84A  22.69A  21.20A  19.52A  
02:15 EDT6.29A  13.47A  21.31A  24.60A  25.53A  25.38A  24.77A  23.85A  22.68A  21.21A  19.51A  
02:30 EDT6.42A  13.54A  21.42A  24.59A  25.53A  25.34A  24.77A  23.84A  22.67A  21.16A  19.47A  
02:45 EDT6.55A  13.61A  21.41A  24.61A  25.51A  25.36A  24.74A  23.81A  22.64A  21.16A  19.47A  
03:00 EDT6.65A  13.72A  21.49A  24.64A  25.53A  25.36A  24.74A  23.81A  22.63A  21.13A  19.45A  
03:15 EDT6.76A  13.75A  21.54A  24.65A  25.54A  25.37A  24.72A  23.79A  22.62A  21.13A  19.44A  
03:30 EDT6.86A  13.81A  21.59A  24.66A  25.54A  25.36A  24.70A  23.80A  22.61A  21.11A  19.42A  
03:45 EDT6.95A  13.91A  21.62A  24.70A  25.52A  25.35A  24.70A  23.77A  22.58A  21.10A  19.36A  
04:00 EDT7.02A  13.96A  21.68A  24.68A  25.53A  25.34A  24.69A  23.78A  22.59A  21.08A  19.37A  
04:15 EDT7.10A  14.03A  21.71A  24.74A  25.55A  25.33A  24.70A  23.76A  22.57A  21.06A  19.36A  
04:30 EDT7.17A  14.12A  21.76A  24.72A  25.53A  25.33A  24.68A  23.74A  22.54A  21.05A  19.32A  
04:45 EDT7.23A  14.19A  21.85A  24.75A  25.53A  25.33A  24.66A  23.72A  22.52A  21.02A  19.32A  
05:00 EDT7.29A  14.24A  21.91A  24.77A  25.53A  25.32A  24.66A  23.74A  22.53A  21.01A  19.28A  
05:15 EDT7.36A  14.29A  21.94A  24.77A  25.55A  25.32A  24.66A  23.72A  22.51A  20.99A  19.24A  
05:30 EDT7.42A  14.40A  21.95A  24.82A  25.52A  25.31A  24.65A  23.71A  22.49A  20.98A  19.25A  
05:45 EDT7.46A  14.53A  22.01A  24.82A  25.55A  25.31A  24.63A  23.67A  22.46A  20.97A  19.24A  
06:00 EDT7.52A  14.59A  22.07A  24.82A  25.54A  25.30A  24.62A  23.69A  22.47A  20.93A  19.24A  
06:15 EDT7.59A  14.65A  22.05A  24.85A  25.55A  25.31A  24.62A  23.66A  22.45A  20.92A  19.21A  
06:30 EDT7.64A  14.71A  22.14A  24.87A  25.55A  25.29A  24.62A  23.65A  22.43A  20.92A  19.18A  
06:45 EDT7.70A  14.82A  22.18A  24.87A  25.54A  25.29A  24.60A  23.65A  22.40A  20.89A  19.17A  
07:00 EDT7.75A  14.89A  22.20A  24.90A  25.57A  25.28A  24.61A  23.64A  22.42A  20.88A  19.12A  
07:15 EDT7.81A  14.94A  22.28A  24.91A  25.54A  25.28A  24.58A  23.60A  22.39A  20.86A  19.14A  
07:30 EDT7.85A  15.03A  22.31A  24.93A  25.55A  25.27A  24.57A  23.62A  22.36A  20.82A  19.10A  
07:45 EDT7.90A  15.16A  22.36A  24.96A  25.56A  25.28A  24.55A  23.60A  22.36A  20.83A  19.08A  
08:00 EDT7.94A  15.25A  22.37A  24.97A  25.54A  25.26A  24.55A  23.60A  22.34A  20.82A  19.05A  
08:15 EDT7.99A  15.36A  22.40A  24.93A  25.55A  25.26A  24.56A  23.57A  22.34A  20.79A  19.06A  
08:30 EDT8.04A  15.35A  22.48A  24.98A  25.57A  25.25A  24.55A  23.56A  22.32A  20.75A  19.04A  
08:45 EDT8.08A  15.47A  22.54A  25.02A  25.54A  25.24A  24.54A  23.55A  22.31A  20.75A  19.03A  
09:00 EDT8.11A  15.62A  22.56A  25.02A  25.55A  25.19A  24.54A  23.55A  22.29A  20.75A  18.99A  
09:15 EDT8.19A  15.65A  22.61A  25.04A  25.56A  25.22A  24.53A  23.53A  22.28A  20.70A  18.96A  
09:30 EDT8.24A  15.74A  22.61A  25.05A  25.56A  25.23A  24.51A  23.52A  22.27A  20.69A  18.94A  
09:45 EDT8.29A  15.82A  22.67A  25.05A  25.57A  25.23A  24.51A  23.49A  22.23A  20.66A  18.93A  
10:00 EDT8.39A  15.94A  22.73A  25.06A  25.54A  25.22A  24.50A  23.50A  22.24A  20.65A  18.92A  
10:15 EDT8.48A  16.01A  22.78A  25.08A  25.55A  25.22A  24.47A  23.48A  22.22A  20.66A  18.88A  
10:30 EDT8.58A  16.11A  22.83A  25.10A  25.55A  25.19A  24.47A  23.48A  22.21A  20.65A  18.87A  
10:45 EDT8.66A  16.24A  22.79A  25.11A  25.54A  25.20A  24.47A  23.47A  22.19A  20.61A  18.86A  
11:00 EDT8.75A  16.26A  22.88A  25.12A  25.56A  25.20A  24.46A  23.43A  22.17A  20.60A  18.83A  
11:15 EDT8.86A  16.36A  22.95A  25.13A  25.54A  25.19A  24.44A  23.45A  22.16A  20.56A  18.83A  
11:30 EDT8.96A  16.42A  22.96A  25.12A  25.54A  25.18A  24.44A  23.42A  22.15A  20.55A  18.82A  
11:45 EDT9.03A  16.44A  22.98A  25.15A  25.55A  25.16A  24.43A  23.42A  22.12A  20.52A  18.78A  
12:00 EDT9.11A  16.69A  23.03A  25.14A  25.56A  25.18A  24.41A  23.42A  22.11A  20.51A  18.75A  
12:15 EDT9.19A  16.80A  23.06A  25.17A  25.54A  25.17A  24.41A  23.43A  22.10A  20.50A  18.76A  
12:30 EDT9.26A  16.86A  23.03A  25.19A  25.58A  25.15A  24.40A  23.38A  22.06A  20.47A  18.71A  
12:45 EDT9.34A  17.00A  23.13A  25.19A  25.54A  25.14A  24.40A  23.35A  22.06A  20.47A  18.73A  
13:00 EDT9.42A  17.10A  23.19A  25.19A  25.54A  25.16A  24.37A  23.37A  22.05A  20.45A  18.70A  
13:15 EDT9.50A  17.16A  23.16A  25.20A  25.56A  25.19A  24.42A  23.34A  22.02A  20.42A  18.68A  
13:30 EDT9.58A  17.34A  23.17A  25.22A  25.54A  25.14A  24.42A  23.34A  22.02A  20.40A  18.65A  
13:45 EDT9.64A  17.39A  23.26A  25.23A  25.55A  25.12A  24.37A  23.31A  22.01A  20.42A  18.64A  
14:00 EDT9.72A  17.48A  23.31A  25.26A  25.54A  25.12A  24.35A  23.30A  21.97A  20.37A  18.64A  
14:15 EDT9.78A  17.61A  23.34A  25.26A  25.54A  25.12A  24.33A  23.30A  21.98A  20.35A  18.66A  
14:30 EDT9.85A  17.65A  23.39A  25.26A  25.54A  25.11A  24.36A  23.30A  21.98A  20.34A  18.61A  
14:45 EDT9.93A  17.79A  23.38A  25.28A  25.52A  25.12A  24.35A  23.27A  21.95A  20.33A  18.59A  
15:00 EDT9.99A  17.90A  23.44A  25.25A  25.52A  25.13A  24.34A  23.27A  21.95A  20.25A  18.55A  
15:15 EDT10.08A  17.92A  23.50A  25.29A  25.52A  25.06A  24.33A  23.25A  21.89A  20.28A  18.55A  
15:30 EDT10.18A  18.07A  23.50A  25.30A  25.53A  25.09A  24.32A  23.23A  21.91A  20.26A  18.54A  
15:45 EDT10.33A  18.19A  23.51A  25.29A  25.52A  25.10A  24.27A  23.25A  21.87A  20.23A  18.49A  
16:00 EDT10.45A  18.32A  23.57A  25.30A  25.51A  25.07A  24.27A  23.22A  21.87A  20.22A  18.46A  
16:15 EDT10.57A  18.38A  23.61A  25.34A  25.52A  25.06A  24.26A  23.20A  21.86A  20.23A  18.45A  
16:30 EDT10.67A  18.46A  23.65A  25.29A  25.53A  25.06A  24.25A  23.18A  21.82A  20.18A  18.46A  
16:45 EDT10.79A  18.54A  23.70A  25.32A  25.51A  25.06A  24.25A  23.16A  21.81A  20.18A  18.43A  
17:00 EDT10.90A  18.67A  23.69A  25.32A  25.53A  25.04A  24.24A  23.15A  21.80A  20.17A  18.41A  
17:15 EDT11.01A  18.79A  23.72A  25.31A  25.52A  25.04A  24.22A  23.15A  21.78A  20.14A  18.41A  
17:30 EDT11.10A  18.76A  23.74A  25.35A  25.51A  25.02A  24.20A  23.14A  21.77A  20.12A  18.38A  
17:45 EDT11.21A  18.98A  23.78A  25.36A  25.50A  25.02A  24.22A  23.12A  21.76A  20.11A  18.34A  
18:00 EDT11.31A  18.98A  23.83A  25.33A  25.50A  25.01A  24.20A  23.11A  21.73A  20.08A  18.34A  
18:15 EDT11.39A  19.10A  23.82A  25.38A  25.51A  25.01A  24.18A  23.10A  21.72A  20.07A  18.33A  
18:30 EDT11.45A  19.19A  23.86A  25.37A  25.49A  25.00A  24.17A  23.09A  21.69A  20.06A  18.31A  
18:45 EDT11.50A  19.27A  23.83A  25.36A  25.50A  24.98A  24.16A  23.08A  21.70A  20.04A  18.27A  
19:00 EDT11.55A  19.31A  23.89A  25.40A  25.48A  24.98A  24.15A  23.06A  21.67A  20.05A  18.26A  
19:15 EDT11.59A  19.37A  23.90A  25.40A  25.48A  24.97A  24.14A  23.05A  21.66A  20.00A  18.24A  
19:30 EDT11.66A  19.51A  23.96A  25.40A  25.48A  24.96A  24.13A  23.03A  21.64A  20.01A  18.24A  
19:45 EDT11.69A  19.58A  24.02A  25.41A  25.47A  24.95A  24.13A  23.03A  21.61A  19.98A  18.22A  
20:00 EDT11.72A  19.64A  24.02A  25.42A  25.48A  24.96A  24.11A  22.99A  21.60A  19.96A  18.17A  
20:15 EDT11.78A  19.68A  24.03A  25.40A  25.48A  24.95A  24.09A  22.98A  21.59A  19.92A  18.18A  
20:30 EDT11.82A  19.83A  24.10A  25.42A  25.47A  24.93A  24.08A  22.97A  21.57A  19.92A  18.14A  
20:45 EDT11.86A  19.88A  24.04A  25.44A  25.48A  24.93A  24.08A  22.96A  21.55A  19.89A  18.12A  
21:00 EDT11.88A  19.97A  24.09A  25.43A  25.46A  24.93A  24.07A  22.95A  21.54A  19.90A  18.10A  
21:15 EDT11.93A  19.98A  24.15A  25.46A  25.47A  24.92A  24.07A  22.94A  21.53A  19.84A  18.09A  
21:30 EDT11.98A  20.10A  24.15A  25.45A  25.46A  24.89A  24.04A  22.94A  21.48A  19.85A  18.08A  
21:45 EDT12.03A  20.18A  24.20A  25.46A  25.43A  24.90A  24.04A  22.90A  21.47A  19.83A  18.06A  
22:00 EDT12.11A  20.23A  24.25A  25.45A  25.44A  24.89A  24.02A  22.96A  21.47A  19.81A  18.04A  
22:15 EDT12.18A  20.37A  24.23A  25.47A  25.43A  24.89A  23.99A  22.88A  21.45A  19.79A  18.00A  
22:30 EDT12.27A  20.40A  24.22A  25.46A  25.43A  24.85A  24.00A  22.86A  21.42A  19.78A  17.99A  
22:45 EDT12.35A  20.50A  24.26A  25.45A  25.43A  24.87A  23.99A  22.85A  21.43A  19.75A  17.97A  
23:00 EDT12.45A  20.56A  24.31A  25.47A  25.43A  24.87A  23.97A  22.84A  21.41A  19.74A  17.96A  
23:15 EDT12.54A  20.60A  24.32A  25.48A  25.43A  24.85A  23.98A  22.86A  21.39A  19.71A  17.90A  
23:30 EDT12.66A  20.67A  24.34A  25.46A  25.41A  24.86A  23.96A  22.82A  21.38A  19.69A  17.92A  
23:45 EDT12.74A  20.70A  24.35A  25.50A  25.41A  24.83A  23.95A  22.80A  21.37A  19.68A  17.89A  
COUNT9696969696969696969696
MAX12.7420.7024.3525.5025.5825.4224.8223.9422.7921.3619.67
MIN5.5412.8420.7824.3725.4124.8323.9522.8021.3719.6817.89

Explanation
  A  Approved for publication -- Processing and review completed.